SB KEPS @ AMSAT $ORB09337.N 2Line Orbital Elements 09337.AMSAT
HR AMSAT ORBITAL ELEMENTS FOR AMATEUR SATELLITES IN NASA FORMAT FROM WA5QGD FORT WORTH,TX December 3, 2009 Send Subscribe/unsubscribe to KEPS at http://www.amsat.org/mailman/listinfo/keps BID: ORB09337.N
DECODE 2-LINE ELSETS WITH THE FOLLOWING KEY: 1 AAAAAU 00 0 0 BBBBB.BBBBBBBB .CCCCCCCC 00000-0 00000-0 0 DDDZ 2 AAAAA EEE.EEEE FFF.FFFF GGGGGGG HHH.HHHH III.IIII JJ.JJJJJJJJKKKKKZ KEY: A-CATALOGNUM B-EPOCHTIME C-DECAY D-ELSETNUM E-INCLINATION F-RAAN G-ECCENTRICITY H-ARGPERIGEE I-MNANOM J-MNMOTION K-ORBITNUM Z-CHECKSUM
TO ALL RADIO AMATEURS BT
AO-07 1 07530U 74089B 09336.63976585 -.00000027 00000-0 10000-3 0 6455 2 07530 101.4149 355.0553 0011907 299.9540 060.0345 12.53577028603826 FO-29 1 24278U 96046B 09337.64836733 .00000003 00000-0 42432-4 0 1905 2 24278 098.5226 188.6834 0349812 271.1084 085.0002 13.52946874656668 SO-33 1 25509U 98061B 09336.71532207 .00000099 00000-0 87746-5 0 06007 2 25509 031.4328 179.5305 0354488 011.9217 348.9547 14.28271273579948 RS-22 1 27939U 03042A 09336.68136717 .00000082 00000-0 24646-4 0 09535 2 27939 097.9172 205.1657 0013083 324.8394 035.1945 14.63362530330210 VO-52 1 28650U 05017B 09336.75208913 .00000302 00000-0 44749-4 0 03788 2 28650 097.7229 032.5614 0026802 196.5776 163.4530 14.81651747247604 SO-67 1 35870U 09049F 09337.86991898 .00000349 00000-0 17842-4 0 2282 2 35870 097.3619 026.4550 0012539 029.8418 323.6896 15.22874477 11730 UO-11 1 14781U 84021B 09336.65769939 .00000162 00000-0 28698-4 0 01214 2 14781 098.0854 022.4992 0009455 147.7700 212.4061 14.79751778382740 AO-16 1 20439U 90005D 09337.80482660 -.00000006 00000-0 13323-4 0 7652 2 20439 098.3044 298.7047 0011515 031.0117 329.1735 14.31841111 37422 LO-19 1 20442U 90005G 09335.66819094 -.00000042 00000-0 -38177-6 0 6738 2 20442 098.2656 303.2643 0012305 033.4726 326.7275 14.32074421 37287 AO-27 1 22825U 93061C 09336.85944799 -.00000032 00000-0 42732-5 0 04000 2 22825 098.4600 285.1572 0009096 123.6058 236.5985 14.29279881844002 IO-26 1 22826U 93061D 09337.79977531 -.00000006 00000-0 14227-4 0 1358 2 22826 098.4537 286.7494 0009660 117.1440 243.0723 14.29533570844249 GO-32 1 25397U 98043D 09337.51048691 .00000124 00000-0 73076-4 0 553 2 25397 098.3176 350.7089 0002085 104.6843 255.4574 14.23168245592212 NO-44 1 26931U 01043C 09337.52280023 .00000021 00000-0 40308-4 0 3281 2 26931 067.0528 348.0834 0007065 269.4329 090.5963 14.29575732426788 SO-50 1 27607U 02058C 09337.82463169 -.00000055 00000-0 13103-4 0 475 2 27607 064.5590 229.8779 0046854 159.8194 200.4741 14.71478920373634 CO-55 1 27844U 03031E 09337.58700765 .00000072 00000-0 53755-4 0 7257 2 27844 098.7120 344.3635 0010278 019.8360 340.3202 14.20670941333318 CO-57 1 27848U 03031J 09337.72925771 .00000046 00000-0 41711-4 0 6779 2 27848 098.7167 343.5724 0010329 023.2849 336.8769 14.20468443333298 AO-51 1 28375U 04025K 09336.52836688 .00000026 00000-0 20528-4 0 05482 2 28375 098.0532 336.3424 0084461 334.9344 024.7758 14.40661273285194 CO-56 1 28941U 06005C 09297.68475575 .14491492 29743-5 25760-3 0 5565 2 28941 098.0955 138.9518 0011688 319.8691 040.7485 16.46998778207909 GENESAT1 1 29655U 06058C 09337.88996673 .00015560 00000-0 12504-3 0 8793 2 29655 040.0289 196.8480 0005421 316.5182 043.5208 15.70485252169115 CP3 1 31129U 07012N 09337.67556998 .00000108 00000-0 35154-4 0 3684 2 31129 097.9679 022.4418 0103301 119.8819 241.2689 14.52186742139488 CO-65 1 32785U 08021C 09337.24395322 .00000082 00000-0 17278-4 0 5409 2 32785 097.9260 039.6236 0014560 198.0386 162.0307 14.81550679 86470 KKS-1 1 33493U 09002B 09337.71312471 .00000368 00000-0 54670-4 0 9972 2 33493 098.0700 090.8120 0021062 055.3946 304.9254 14.80791036 46557 SOHLA-1 1 33496U 09002E 09337.80396812 .00000025 00000-0 12512-4 0 9616 2 33496 098.0490 084.5807 0007707 100.1682 260.0395 14.69457981 46186 NOAA-10 1 16969U 86073A 09336.60156724 .00000081 00000-0 50838-4 0 08588 2 16969 098.6775 002.2155 0013051 067.0790 293.1772 14.27400961207531 NOAA-11 1 19531U 88089A 09336.65243752 .00000253 00000-0 15359-3 0 08734 2 19531 098.7801 063.9650 0011522 352.2008 007.8992 14.14910021093341 NOAA-12 1 21263U 91032A 09336.97472972 .00000059 00000-0 43923-4 0 03776 2 21263 098.7706 345.1192 0012750 020.6009 339.5682 14.25605218964447 MET-3/5 1 21655U 91056A 09336.95248671 .00000051 00000-0 10000-3 0 07137 2 21655 082.5522 087.2812 0014377 116.6276 243.6321 13.17021607879849 MET-2/21 1 22782U 93055A 09337.53832954 -.00000072 00000-0 -78199-4 0 6349 2 22782 082.5500 047.6672 0021230 229.0042 130.9286 13.83641219821022 OKEAN-4 1 23317U 94066A 09337.75757559 .00000181 00000-0 19388-4 0 908 2 23317 082.5382 176.2457 0022341 161.7997 198.3991 14.82743606817490 NOAA-14 1 23455U 94089A 09336.82117740 -.00000066 00000-0 -11415-4 0 08506 2 23455 098.8970 053.7921 0010165 075.6071 284.6211 14.13774206769751 NOAA-15 1 25338U 98030A 09336.73588058 -.00000101 00000-0 -24879-4 0 01772 2 25338 098.5994 322.3904 0009776 288.9126 071.0984 14.24794714600777 RESURS 1 25394U 98043A 09336.63313940 -.00000025 00000-0 66580-5 0 03731 2 25394 098.3213 000.2713 0002398 077.7961 282.3483 14.24190951592375 FENGYUN1 1 25730U 99025A 09337.83899952 .00000970 00000-0 59305-3 0 9156 2 25730 098.7708 303.0547 0022968 091.2553 269.1258 14.08107342544198 OKEAN-0 1 25860U 99039A 09336.84212217 .00000045 00000-0 14200-4 0 8527 2 25860 097.8068 311.5174 0001457 045.7279 314.4044 14.73600696557980 NOAA-16 1 26536U 00055A 09336.66469489 .00000031 00000-0 42174-4 0 06572 2 26536 099.1771 344.4319 0010889 164.9460 195.2035 14.12539238474088 NOAA-17 1 27453U 02032A 09336.83601694 .00000100 00000-0 61811-4 0 06524 2 27453 098.4630 029.9018 0011546 356.6924 003.4168 14.24111347386753 NOAA-18 1 28654U 05018A 09336.85236768 -.00000120 00000-0 -41517-4 0 01376 2 28654 098.9268 278.9261 0013516 246.4844 113.4923 14.11305827233746 NOAA-19 1 33591U 09005A 09336.86874953 -.00000192 00000-0 -82798-4 0 03442 2 33591 098.7665 278.3890 0014795 123.1057 237.1531 14.11004987042223 HUBBLE 1 20580U 90037B 09335.75695345 .00000415 00000-0 19004-4 0 4834 2 20580 028.4687 088.6049 0003454 259.9800 100.0422 15.00861827875058 ISS 1 25544U 98067A 09338.08408725 .00014536 00000-0 94189-4 0 1049 2 25544 051.6460 153.7487 0007522 048.4567 051.2042 15.76292799632720 CO-58 1 28895U 05043F 09336.68118465 .00000110 00000-0 32560-4 0 04575 2 28895 098.0384 222.3595 0017749 177.5956 182.5337 14.59820659218315 FALCON 1 30776U 07006E 09337.85312239 .00000427 00000-0 33798-4 0 7143 2 30776 035.4328 149.9268 0002123 315.8072 044.2474 15.03384899150644 MAST 1 31126U 07012K 09337.72417908 -.00000025 00000-0 45488-5 0 7465 2 31126 097.9667 024.5605 0095629 113.3220 247.8060 14.53535376139668 CAPE1 1 31130U 07012P 09337.86099416 -.00000052 00000-0 -15714-5 0 7588 2 31130 097.9690 022.5032 0103704 119.4572 241.7009 14.52110946139311 COMPASS 1 32787U 08021E 09337.74538828 .00000336 00000-0 49328-4 0 5331 2 32787 097.9236 039.9519 0015499 197.9119 162.1550 14.81707537 86553 AAUSAT2 1 32788U 08021F 09336.82110264 .00000537 00000-0 74642-4 0 5262 2 32788 097.9231 039.1249 0015123 202.3075 157.7469 14.81837155 86422 DO-64 1 32789U 08021G 09337.78692969 .00000233 00000-0 36164-4 0 5435 2 32789 097.9287 040.3634 0015345 197.2935 162.7756 14.81875920 86561 CO-66 1 32791U 08021J 09337.20064529 .00000115 00000-0 21436-4 0 5233 2 32791 097.9244 039.4433 0015502 198.6476 161.4161 14.81520340 86438 RS-30 1 32953U 08025A 09336.57397407 .00000010 00000-0 00000 0 0 4670 2 32953 082.4996 151.9307 0018863 169.7148 190.4323 12.43003025 69311 TACSAT-3 1 35001U 09028A 09336.97043651 .00003698 00000-0 96303-4 0 01694 2 35001 040.4574 310.8061 0024417 335.8612 024.1057 15.39708638030361 PHARMSAT 1 35002U 09028B 09335.38292576 .00003477 00000-0 88686-4 0 01556 2 35002 040.4699 319.1963 0027282 328.2990 031.6181 15.40406094030129 HAWKSAT1 1 35003U 09028C 09336.98038454 .00005794 00000-0 13839-3 0 01592 2 35003 040.4648 308.2507 0026657 344.2264 015.7672 15.41586020030390 CP6 1 35004U 09028D 09336.97333558 .00006759 00000-0 15956-3 0 01566 2 35004 040.4654 308.2055 0025647 344.0926 015.9051 15.41779124030388 AEROCUB3 1 35005U 09028E 09336.93467375 .00009264 00000-0 21807-3 0 01632 2 35005 040.4757 309.0194 0026282 341.3177 018.6672 15.41544839030371 DRAGNSAT 1 35690U 09038B 09337.84846737 .00041934 00000-0 14648-3 0 1272 2 35690 051.6362 146.1848 0004750 203.5095 156.5667 15.88848540 20021 POLLUX 1 35693U 09038E 09337.53295321 .00038682 00000-0 14471-3 0 1346 2 35693 051.6373 148.5952 0004325 164.4182 195.6830 15.87504426 19933 CASTOR 1 35694U 09038F 09337.52799177 .00016249 00000-0 75142-4 0 1207 2 35694 051.6392 150.1097 0004668 148.9848 211.1325 15.83684657 19912 METEOR-M 1 35865U 09049A 09337.78241779 .00000176 00000-0 10000-3 0 692 2 35865 098.7887 027.7010 0002165 188.9278 171.1821 14.21827393 10956 /EX
participants (1)
-
Ray Hoad